Ketchikan, AK

1:34 AM AKDT on May 28, 2017 (GMT -0800)
Ketchikan International

Weather History for PAKT - January, 2014

Change the Weather History Date:

Friday, January 31, 2014

  Actual Average Record
Temperature  
Mean Temperature 32 °F -  
Max Temperature 37 °F 39 °F 58 °F (1993)
Min Temperature 26 °F 27 °F 7 °F (1989)
Degree Days  
Heating Degree Days 34    
Moisture  
Dew Point 26 °F    
Average Humidity 83    
Maximum Humidity 93    
Minimum Humidity 64    
Precipitation  
Precipitation 0.00 in - - ()
Sea Level Pressure  
Sea Level Pressure 30.12 in    
Wind  
Wind Speed 3 mph (SSW)    
Max Wind Speed 7 mph    
Max Gust Speed -    
Visibility 10 miles    
Events      
Averages and records for this station are not official NWS values.
T = Trace of Precipitation, MM = Missing Value Source: NWS Daily Summary

Daily Weather History Graph

Daily Weather History Graph

Search for Another Location

Airport or City:

Trip Planner

Search our weather history database for the weather conditions in past years. The results will help you decide how hot, cold, wet, or windy it might be!

Date:

Astronomy

Jan. 31, 2014 Rise Set
Actual Time 7:40 AM AKST 4:20 PM AKST
Civil Twilight 7:00 AM AKST 5:01 PM AKST
Nautical Twilight 6:15 AM AKST 5:45 PM AKST
Astronomical Twilight 5:33 AM AKST 6:28 PM AKST
Moon 7:35 AM AKST (1/31) 6:17 PM AKST (1/31)
Length of Visible Light 10h 01m
Length of Day
8h 40m
New Moon, 1% of the Moon is Illuminated
Jan 31
New Moon
Feb 6
First Quarter
Feb 14
Full
Feb 22
Last Quarter
Feb 28
New

Hourly Weather History & Observations

Time (AKST) Temp. Windchill Dew Point Humidity Pressure Visibility Wind Dir Wind Speed Gust Speed Precip Events Conditions
12:53 AM 32.0 °F 27.5 °F 27.0 °F 82% 30.05 in 10.0 mi WNW 4.6 mph - N/A   Clear
1:53 AM 30.0 °F 26.5 °F 26.1 °F 85% 30.06 in 10.0 mi West 3.5 mph - N/A   Clear
2:53 AM 30.9 °F 27.5 °F 26.1 °F 82% 30.07 in 10.0 mi WNW 3.5 mph - N/A   Clear
3:53 AM 30.0 °F 25.2 °F 26.1 °F 85% 30.07 in 10.0 mi North 4.6 mph - N/A   Clear
4:53 AM 30.0 °F 23.2 °F 25.0 °F 82% 30.08 in 10.0 mi WNW 6.9 mph - N/A   Clear
5:53 AM 28.0 °F 24.2 °F 25.0 °F 88% 30.09 in 10.0 mi WNW 3.5 mph - N/A   Clear
6:53 AM 28.0 °F - 25.0 °F 88% 30.10 in 10.0 mi Calm Calm - N/A   Clear
7:53 AM 26.1 °F - 24.1 °F 92% 30.11 in 10.0 mi Calm Calm - N/A   Clear
8:53 AM 30.0 °F 26.5 °F 27.0 °F 88% 30.12 in 10.0 mi SE 3.5 mph - N/A   Clear
9:53 AM 32.0 °F - 28.0 °F 85% 30.14 in 10.0 mi Calm Calm - N/A   Clear
10:53 AM 33.1 °F - 27.0 °F 78% 30.14 in 10.0 mi Calm Calm - N/A   Clear
11:53 AM 36.0 °F - 26.1 °F 67% 30.14 in 10.0 mi Calm Calm - N/A   Clear
12:53 PM 37.0 °F - 27.0 °F 67% 30.13 in 10.0 mi Calm Calm - N/A   Clear
1:53 PM 37.0 °F - 26.1 °F 65% 30.14 in 10.0 mi Calm Calm - N/A   Clear
2:53 PM 36.0 °F 33.3 °F 25.0 °F 64% 30.14 in 10.0 mi SSE 3.5 mph - N/A   Clear
3:53 PM 33.1 °F 28.7 °F 27.0 °F 78% 30.14 in 10.0 mi South 4.6 mph - N/A   Clear
4:53 PM 30.9 °F - 26.1 °F 82% 30.15 in 10.0 mi Calm Calm - N/A   Clear
5:53 PM 32.0 °F 28.7 °F 27.0 °F 82% 30.15 in 10.0 mi SSE 3.5 mph - N/A   Clear
6:53 PM 30.0 °F 26.5 °F 25.0 °F 82% 30.15 in 10.0 mi SSE 3.5 mph - N/A   Clear
7:53 PM 27.0 °F - 25.0 °F 92% 30.15 in 10.0 mi Calm Calm - N/A   Clear
8:53 PM 28.9 °F - 26.1 °F 89% 30.15 in 10.0 mi Calm Calm - N/A   Clear
9:27 PM 30.2 °F 26.7 °F 28.4 °F 93% 30.15 in 10.0 mi SSE 3.5 mph - N/A   Mostly Cloudy
9:53 PM 30.0 °F - 28.0 °F 92% 30.16 in 10.0 mi Calm Calm - N/A   Overcast
10:53 PM 32.0 °F 28.7 °F 28.9 °F 88% 30.16 in 10.0 mi SE 3.5 mph - N/A   Overcast
11:53 PM 32.0 °F 28.7 °F 30.0 °F 92% 30.17 in 10.0 mi SE 3.5 mph - N/A   Overcast